This is the latest recevied weather packets stored in our database for station/object WX4ET. If no packets are shown the sender has not sent any weather packets the latest 10 day(s).
| Time | Temp. | Humidity | Pressure | Rain* | Wind** | Luminosity | Snow |
|---|---|---|---|---|---|---|---|
| 1777417924 | 23.33° C | 75% | 1010.8 hPa | 0 mm | - | 61 W/m² | - |
| 1777417620 | 23.33° C | 75% | 1011 hPa | 0 mm | - | 62 W/m² | - |
| 1777417315 | 23.89° C | 73% | 1011 hPa | 0 mm | - | 75 W/m² | - |
| 1777417012 | 23.89° C | 72% | 1010.8 hPa | 0 mm | - | 115 W/m² | - |
| 1777416707 | 23.89° C | 73% | 1010.9 hPa | 0 mm | - | 137 W/m² | - |
| 1777416404 | 23.89° C | 73% | 1010.9 hPa | 0 mm | - | 146 W/m² | - |
| 1777416098 | 23.89° C | 72% | 1010.5 hPa | 0 mm | - | 88 W/m² | - |
| 1777415792 | 24.44° C | 73% | 1010.6 hPa | 0 mm | - | 132 W/m² | - |
| 1777415489 | 24.44° C | 70% | 1010.5 hPa | 0 mm | - | 203 W/m² | - |
| 1777415185 | 24.44° C | 72% | 1010.3 hPa | 0 mm | - | 203 W/m² | - |
| 1777414880 | 24.44° C | 70% | 1009.9 hPa | 0 mm | - | 197 W/m² | - |
| 1777414579 | 24.44° C | 71% | 1010 hPa | 0 mm | - | 252 W/m² | - |
| 1777414274 | 24.44° C | 70% | 1010.2 hPa | 0 mm | - | 95 W/m² | - |
| 1777413970 | 24.44° C | 70% | 1010.1 hPa | 0 mm | - | 256 W/m² | - |
| 1777413665 | 24.44° C | 69% | 1010.4 hPa | 0 mm | - | 274 W/m² | - |
| 1777413361 | 25° C | 69% | 1010.5 hPa | 0 mm | - | 282 W/m² | - |
| 1777413057 | 23.89° C | 72% | 1010.7 hPa | 0 mm | - | 296 W/m² | - |
| 1777412752 | 24.44° C | 70% | 1011 hPa | 0 mm | - | 321 W/m² | - |
| 1777412450 | 24.44° C | 69% | 1011.1 hPa | 0 mm | - | 340 W/m² | - |
| 1777412149 | 24.44° C | 70% | 1011.2 hPa | 0 mm | - | 360 W/m² | - |
| 1777411845 | 24.44° C | 70% | 1011.4 hPa | 0 mm | - | 391 W/m² | - |
| 1777411543 | 24.44° C | 71% | 1011.5 hPa | 0 mm | - | 459 W/m² | - |
| 1777411238 | 23.89° C | 71% | 1011.4 hPa | 0 mm | - | 419 W/m² | - |
| 1777410933 | 25° C | 70% | 1011.6 hPa | 0 mm | - | 145 W/m² | - |
| 1777410632 | 24.44° C | 71% | 1011.4 hPa | 0 mm | - | 417 W/m² | - |
* Rain latest hour (hover to see other rain measurements)
** Current wind speed in m/s (hover to see current wind gust speed)